SCP
0 0 0 0 0 0 0 0 0 0 0 0 0 0 0 0 0 0 0 0 0 0 0 0 0 0 0 0 0 0 0 0 0 0 0 0 0 0 0 0 0 0 0
0 0 0 0 0 0 0 0 0 0 0 0 0 0 0 0 0 0 0 0 0 0 0 0 0 0 0 0 0 0 0 0 0 0 0 0 0 0 0 0 0 0 0
0 0 0 0 0 0 0 0 0 0 0 0 0 0 0 0 0 0 0 0 0 0 0 0 0 0 0 0 0 0 0 0 0 0 0 0 0 0 0 0 0 0 0
0 0 0 0 0 0 0 0 0 0 0 0 0 0 0 0 0 0 0 0 0 0 0 0 0 0 0 0 0 0 0 0 0 0 0 0 0 0 0 0 0 0 0
0 0 0 0 0 0 0 0 0 0 0 0 0 0 0 0 0 0 0 0 0 0 0 0 0 0 0 0 0 0 0 0 0 0 0 0 0 0 0 0 0 0 0
0 0 0 0 0 0 0 0 0 0 0 0 0 0 0 0 0 0 0 0 0 0 0 0 0 0 0 0 0 0 0 0 0 0 0 0 0 0 0 0 0 0 0
0 0 0 0 0 0 0 0 0 0 0 0 0 0 0 0 0 0 0 0 0 0 0 0 0 0 0 0 0 0 0 0 0 0 0 0 0 0 0 0 0 0 0
0 0 0 0 0 0 0 0 0 0 0 0 0 0 0 0 0 0 0 0 0 0 0 0 0 0 0 0 0 0 0 0 0 0 0 0 0 0 0 0 0 0 0
0 0 0 0 0 0 0 0 0 0 0 0 0 0 0 0 0 0 0 0 0 0 0 0 0 0 0 0 0 0 0 0 0 0 0 0 0 0 0 0 0 0 0
0 0 0 0 0 0 0 0 0 0 0 0 0 0 0 0 0 0 0 0 0 0 0 0 0 0 0 0 0 0 0 0 0 0 0 0 0 0 0 0 0 0 0
0 0 0 0 0 0 0 0 0 0 0 0 0 0 0 0 0 0 0 0 0 0 0 0 0 0 0 0 0 0 0 0 0 0 0 0 0 0 0 0 0 0 0
0 0 0 0 0 0 0 0 0 0 0 0 0 0 0 0 0 0 0 0 0 0 0 0 0 0 0 0 0 0 0 0 0 0 0 0 0 0 0 0 0 0 0
0 0 0 0 0 0 0 0 0 0 0 0 0 0 0 0 0 0 0 0 0 0 0 0 0 0 0 0 0 0 0 0 0 0 0 0 0 0 0 0 0 0 0
0 0 0 0 0 0 0 0 0 0 0 0 0 0 0 0 0 0 0 0 0 0 0 0 0 0 0 0 0 0 0 0 0 0 0 0 0 0 0 0 0 0 0
0 0 0 0 0 0 0 0 0 0 0 0 0 0 0 0 0 0 0 0 0 0 0 0 0 0 0 0 0 0 0 0 0 0 0 0 0 0 0 0 0 0 0
0 0 0 0 0 0 0 0 0 0 0 0 0 0 0 0 0 0 0 0 0 0 0 0 0 0 0 0 0 0 0 0 0 0 0 0 0 0 0 0 0 0 0
0 0 0 0 0 0 0 0 0 0 0 0 0 0 0 0 0 0 0 0 0 0 0 0 0 0 0 0 0 0 0 0 0 0 0 0 0 0 0 0 0 0 0
0 0 0 0 0 0 0 0 0 0 0 0 0 0 0 0 0 0 0 0 0 0 0 0 0 0 0 0 0 0 0 0 0 0 0 0 0 0 0 0 0 0 0
0 0 0 0 0 0 0 0 0 0 0 0 0 0 0 0 0 0 0 0 0 0 0 0 0 0 0 0 0 0 0 0 0 0 0 0 0 0 0 0 0 0 0
0 0 0 0 0 0 0 0 0 0 0 0 0 0 0 0 0 0 0 0 0 0 0 0 0 0 0 0 0 0 0 0 0 0 0 0 0 0 0 0 0 0 0
0 0 0 0 0 0 0 0 0 0 0 0 0 0 0 0 0 0 0 0 0 0 0 0 0 0 0 0 0 0 0 0 0 0 0 0 0 0 0 0 0 0 0
0 0 0 0 0 0 0 0 0 0 0 0 0 0 0 0 0 0 0 0 0 0 0 0 0 0 0 0 0 0 0 0 0 0 0 0 0 0 0 0 0 0 0
0 0 0 0 0 0 0 0 0 0 0 0 0 0 0 0 0 0 0 0 0 0 0 0 0 0 0 0 0 0 0 0 0 0 0 0 0 0 0 0 0 0 0
0 0 0 0 0 0 0 0 0 0 0 0 0 0 0 0 0 0 0 0 0 0 0 0 0 0 0 0 0 0 0 0 0 0 0 0 0 0 0 0 0 0 0
0 0 0 0 0 0 0 0 0 0 0 0 0 0 0 0 0 0 0 0 0 0 0 0 0 0 0 0 0 0 0 0 0 0 0 0 0 0 0 0 0 0 0
0 0 0 0 0 0 0 0 0 0 0 0 0 0 0 0 0 0 0 0 0 0 0 0 0 0 0 0 0 0 0 0 0 0 0 0 0 0 0 0 0 0 0
Wind_Speed_500mb
7 5 3 1 2 4 5 7 8 10 12 14 15 15 16 17 17 16 17 19 18 18 16 15 15 15 16 17 19 21 23 25 27 29 31 31 33 35 35 36 37 38 40
8 9 6 3 4 6 9 11 13 14 16 17 18 18 17 18 17 17 17 18 16 16 16 16 15 15 15 15 19 23 28 30 31 32 33 34 36 36 36 34 35 37 38
10 9 9 9 10 11 13 15 17 17 17 17 19 20 21 21 20 19 19 18 20 19 19 17 16 14 13 16 20 24 29 33 35 35 36 35 37 37 37 37 36 35 36
7 5 9 13 14 15 16 17 18 19 20 21 22 23 23 23 23 22 23 23 23 23 22 20 17 15 14 17 20 25 32 38 39 37 35 36 35 36 37 36 36 38 36
9 6 8 11 13 16 18 19 21 20 22 24 25 26 26 26 26 26 27 27 27 26 25 24 20 18 17 21 25 29 34 37 39 39 37 34 32 35 36 35 36 36 36
10 9 11 13 14 17 19 21 22 24 24 26 28 28 29 29 30 31 30 32 32 31 29 28 25 23 21 25 28 31 33 35 38 39 38 35 30 35 39 38 37 31 29
12 13 13 14 15 17 20 22 24 25 28 27 31 27 31 31 31 33 34 35 36 35 34 32 30 28 28 29 31 32 32 34 37 39 39 35 26 36 39 40 37 33 32
13 13 14 16 18 20 21 23 25 28 29 28 27 31 16 23 26 24 26 30 32 35 36 36 36 33 31 33 35 34 35 34 38 39 38 35 26 35 36 34 32 28 23
11 12 14 17 21 22 23 25 26 28 30 34 30 21 13 12 24 31 31 34 37 37 38 41 41 38 35 36 37 37 36 37 41 41 40 37 28 30 33 30 23 19 16
10 14 18 21 23 26 26 28 29 31 33 34 37 35 35 39 22 27 26 29 32 36 43 44 45 46 41 40 41 39 40 41 44 44 41 38 26 30 28 18 16 12 9
14 21 26 34 40 28 28 31 34 37 39 41 40 38 41 43 46 39 46 34 33 38 46 47 49 54 49 48 45 43 41 43 46 45 42 39 27 33 31 29 26 20 17
26 29 36 43 33 33 36 39 42 44 46 51 51 49 49 37 31 34 38 48 46 44 42 56 58 58 64 55 48 46 44 45 47 46 42 39 29 33 33 32 26 21 27
29 34 39 34 34 37 39 43 47 49 49 52 53 55 57 58 55 51 46 51 53 50 46 54 63 63 62 62 53 48 47 47 47 45 42 39 30 28 30 28 27 25 19
30 26 23 25 28 32 36 39 44 48 50 53 56 58 61 62 64 65 67 65 63 58 51 50 50 67 66 66 57 48 47 44 45 44 43 40 34 34 36 31 28 29 20
13 16 20 23 26 30 33 37 39 42 45 51 56 59 62 66 67 68 72 72 72 64 65 59 55 59 65 66 55 50 44 43 42 42 43 39 36 36 35 32 31 28 26
16 21 25 30 33 36 40 43 45 46 49 51 53 57 59 63 66 67 72 75 76 81 88 64 63 65 63 64 61 54 44 40 39 43 41 42 41 38 37 36 33 29 30
20 24 29 34 39 43 46 49 50 52 53 55 56 57 61 62 68 71 74 75 78 77 88 95 86 78 76 73 72 59 45 45 49 47 43 42 40 39 38 38 35 33 34
22 28 32 35 39 43 46 48 51 52 53 54 55 57 62 58 60 65 71 75 77 77 81 91 87 87 89 85 70 61 50 55 52 42 38 36 35 35 38 42 43 42 33
22 27 33 39 44 48 51 52 55 57 57 59 61 61 63 63 66 68 70 79 81 80 83 88 96 84 81 80 71 62 57 55 49 43 41 37 34 35 42 42 56 46 31
30 36 40 44 48 49 50 52 55 58 61 64 67 69 70 68 65 63 65 72 80 87 87 88 89 80 81 74 67 59 61 57 44 46 42 43 40 36 36 38 59 45 35
33 38 43 45 48 49 49 52 54 57 61 65 67 70 72 73 75 76 75 75 76 82 87 85 84 79 80 80 76 66 62 45 47 51 51 45 40 38 35 21 35 40 41
37 40 44 45 46 47 49 50 54 58 60 64 70 70 73 77 79 81 83 79 77 77 87 83 79 75 82 81 66 60 52 48 49 37 36 40 33 32 40 42 39 43 37
39 41 42 44 45 47 49 51 53 58 63 69 73 75 80 80 78 80 74 74 78 74 74 80 88 80 70 70 50 42 47 40 37 33 26 21 20 33 29 40 50 44 35
40 42 43 46 47 47 48 52 51 56 61 61 71 79 77 88 81 71 71 71 75 69 69 66 75 75 66 47 37 43 36 32 32 28 29 20 27 39 41 45 41 36 29
42 44 47 49 50 50 51 56 56 60 64 72 76 77 81 81 77 63 63 67 67 62 51 45 45 29 28 32 27 24 30 31 32 33 28 25 33 45 38 35 33 30 25
45 48 50 51 53 53 49 53 57 58 66 71 79 84 76 68 66 63 57 52 61 47 45 33 22 20 21 22 26 28 33 31 34 36 32 40 39 49 34 36 33 30 26
Wind_Direction_500mb
181 212 213 267 270 317 331 327 321 315 301 289 287 286 285 281 280 280 277 283 282 283 285 297 311 317 318 320 322 323 323 324 324 321 318 313 307 302 296 291 286 283 281
202 218 230 255 300 318 321 313 310 307 304 301 298 294 289 285 280 278 277 282 281 285 289 299 307 312 315 320 321 324 327 328 325 321 317 316 312 308 302 295 290 286 283
216 225 244 263 276 298 312 315 315 312 309 304 296 293 291 287 285 283 280 277 285 285 289 293 295 300 309 317 323 323 322 322 321 319 317 315 315 312 308 301 299 294 290
204 236 257 265 274 291 306 308 309 312 310 307 303 299 295 291 287 284 281 278 280 284 286 283 286 293 303 312 315 318 320 319 318 317 315 313 313 315 314 311 303 298 296
228 260 287 284 286 291 296 298 302 305 309 311 308 304 300 295 291 285 281 279 278 277 275 278 276 284 298 310 314 315 315 314 315 317 314 311 313 314 312 311 310 305 296
247 270 288 287 289 291 292 295 300 305 306 309 308 304 300 296 291 286 282 279 275 271 270 272 276 281 293 302 305 308 312 314 316 316 313 310 310 308 306 308 311 313 310
242 259 279 289 292 293 293 296 298 301 305 308 309 309 302 295 289 284 279 275 272 269 266 267 268 270 285 298 303 306 308 312 311 308 307 305 303 305 309 311 314 309 299
246 265 280 288 294 297 296 296 299 302 301 304 307 315 317 305 298 289 285 278 274 269 266 267 265 265 281 294 298 302 305 306 303 300 300 300 294 301 307 308 319 327 320
252 269 283 289 289 289 290 293 295 295 295 298 297 289 303 286 303 292 284 284 283 276 274 273 270 266 277 289 293 295 298 300 298 296 296 296 295 294 299 307 305 330 340
285 291 295 296 294 285 283 284 287 288 289 290 290 286 279 277 287 293 290 291 276 277 281 279 274 266 272 283 286 287 292 294 292 291 292 292 282 283 286 285 300 332 2
295 289 287 289 289 285 282 279 280 282 283 285 284 282 285 279 275 267 284 282 283 281 274 275 277 268 267 277 283 282 286 288 287 286 287 288 286 276 267 260 265 280 286
283 283 289 290 298 289 287 282 280 282 286 286 286 283 281 273 277 271 268 277 278 278 270 276 275 270 269 270 279 277 280 282 280 279 280 280 278 270 260 260 262 270 287
271 276 288 298 302 301 300 299 297 291 287 285 287 287 282 280 279 272 268 273 275 274 274 277 277 273 270 267 276 272 275 277 275 275 276 276 273 257 244 255 266 276 282
278 288 302 311 313 312 309 305 302 301 298 291 287 285 283 279 278 279 279 281 273 272 268 270 273 273 271 265 265 264 272 271 269 270 271 273 265 250 250 261 260 266 264
299 317 324 325 323 320 317 314 312 308 303 299 295 291 287 285 281 278 277 276 276 269 270 266 265 272 269 263 258 262 267 266 263 265 265 264 258 248 247 248 249 261 262
343 341 337 333 330 327 323 319 315 310 305 301 296 293 290 288 287 285 283 279 274 273 269 267 259 260 266 262 260 265 263 263 265 264 260 260 257 250 248 251 250 254 259
340 335 333 332 330 328 324 321 317 313 309 304 299 294 292 291 287 283 283 282 280 276 273 276 271 260 256 256 260 253 260 268 260 260 255 253 251 247 245 245 248 248 267
340 337 333 330 327 324 321 318 315 312 310 307 306 302 297 295 292 292 292 291 288 284 281 282 276 266 260 259 251 246 256 254 251 249 241 242 248 248 249 246 248 243 252
326 328 329 330 330 329 326 324 321 319 315 313 311 307 304 303 298 290 289 291 290 290 286 285 280 266 257 257 238 240 242 240 245 235 233 240 251 255 257 258 248 230 228
336 335 334 332 331 328 323 318 317 316 315 312 310 307 304 301 297 296 297 288 287 287 287 282 278 256 256 251 240 246 239 230 232 231 233 241 249 255 262 242 226 226 230
332 330 328 327 327 326 323 318 314 314 313 311 310 307 302 297 293 292 288 287 285 281 282 277 271 257 247 244 232 236 234 234 235 234 240 247 248 251 237 254 241 237 246
328 327 327 327 327 325 322 319 317 318 318 318 315 309 302 298 294 289 287 283 286 282 282 268 261 253 246 236 238 236 228 235 214 232 253 261 260 229 235 242 231 216 215
325 324 325 325 326 326 328 323 318 316 317 319 321 321 316 311 307 310 303 291 289 280 280 274 273 250 230 225 229 222 211 224 239 250 254 251 238 222 229 219 215 224 225
324 324 323 324 325 328 328 327 319 316 317 318 319 319 313 311 308 302 301 294 293 283 284 273 271 242 229 234 210 215 222 232 238 237 226 228 220 199 199 190 199 206 198
323 323 324 323 324 327 330 330 326 320 316 314 317 319 317 312 314 313 298 290 291 282 275 240 217 231 215 224 212 211 214 211 212 207 212 220 208 188 184 187 192 192 194
322 321 320 322 324 325 331 328 325 321 318 319 323 320 321 318 317 312 292 281 277 249 246 233 211 215 200 200 209 213 224 220 222 218 236 220 211 199 168 184 193 192 194
Wind_Speed_850mb
7 5 3 1 2 4 5 7 8 10 12 14 15 15 16 17 17 16 17 19 18 18 16 15 15 15 16 17 19 21 23 25 27 29 31 31 33 35 35 36 37 38 40
8 9 6 3 4 6 9 11 13 14 16 17 18 18 17 18 17 17 17 18 16 16 16 16 15 15 15 15 19 23 28 30 31 32 33 34 36 36 36 34 35 37 38
10 9 9 9 10 11 13 15 17 17 17 17 19 20 21 21 20 19 19 18 20 19 19 17 16 14 13 16 20 24 29 33 35 35 36 35 37 37 37 37 36 35 36
7 5 9 13 14 15 16 17 18 19 20 21 22 23 23 23 23 22 23 23 23 23 22 20 17 15 14 17 20 25 32 38 39 37 35 36 35 36 37 36 36 38 36
9 6 8 11 13 16 18 19 21 20 22 24 25 26 26 26 26 26 27 27 27 26 25 24 20 18 17 21 25 29 34 37 39 39 37 34 32 35 36 35 36 36 36
10 9 11 13 14 17 19 21 22 24 24 26 28 28 29 29 30 31 30 32 32 31 29 28 25 23 21 25 28 31 33 35 38 39 38 35 30 35 39 38 37 31 29
12 13 13 14 15 17 20 22 24 25 28 27 31 27 31 31 31 33 34 35 36 35 34 32 30 28 28 29 31 32 32 34 37 39 39 35 26 36 39 40 37 33 32
13 13 14 16 18 20 21 23 25 28 29 28 27 31 16 23 26 24 26 30 32 35 36 36 36 33 31 33 35 34 35 34 38 39 38 35 26 35 36 34 32 28 23
11 12 14 17 21 22 23 25 26 28 30 34 30 21 13 12 24 31 31 34 37 37 38 41 41 38 35 36 37 37 36 37 41 41 40 37 28 30 33 30 23 19 16
10 14 18 21 23 26 26 28 29 31 33 34 37 35 35 39 22 27 26 29 32 36 43 44 45 46 41 40 41 39 40 41 44 44 41 38 26 30 28 18 16 12 9
14 21 26 34 40 28 28 31 34 37 39 41 40 38 41 43 46 39 46 34 33 38 46 47 49 54 49 48 45 43 41 43 46 45 42 39 27 33 31 29 26 20 17
26 29 36 43 33 33 36 39 42 44 46 51 51 49 49 37 31 34 38 48 46 44 42 56 58 58 64 55 48 46 44 45 47 46 42 39 29 33 33 32 26 21 27
29 34 39 34 34 37 39 43 47 49 49 52 53 55 57 58 55 51 46 51 53 50 46 54 63 63 62 62 53 48 47 47 47 45 42 39 30 28 30 28 27 25 19
30 26 23 25 28 32 36 39 44 48 50 53 56 58 61 62 64 65 67 65 63 58 51 50 50 67 66 66 57 48 47 44 45 44 43 40 34 34 36 31 28 29 20
13 16 20 23 26 30 33 37 39 42 45 51 56 59 62 66 67 68 72 72 72 64 65 59 55 59 65 66 55 50 44 43 42 42 43 39 36 36 35 32 31 28 26
16 21 25 30 33 36 40 43 45 46 49 51 53 57 59 63 66 67 72 75 76 81 88 64 63 65 63 64 61 54 44 40 39 43 41 42 41 38 37 36 33 29 30
20 24 29 34 39 43 46 49 50 52 53 55 56 57 61 62 68 71 74 75 78 77 88 95 86 78 76 73 72 59 45 45 49 47 43 42 40 39 38 38 35 33 34
22 28 32 35 39 43 46 48 51 52 53 54 55 57 62 58 60 65 71 75 77 77 81 91 87 87 89 85 70 61 50 55 52 42 38 36 35 35 38 42 43 42 33
22 27 33 39 44 48 51 52 55 57 57 59 61 61 63 63 66 68 70 79 81 80 83 88 96 84 81 80 71 62 57 55 49 43 41 37 34 35 42 42 56 46 31
30 36 40 44 48 49 50 52 55 58 61 64 67 69 70 68 65 63 65 72 80 87 87 88 89 80 81 74 67 59 61 57 44 46 42 43 40 36 36 38 59 45 35
33 38 43 45 48 49 49 52 54 57 61 65 67 70 72 73 75 76 75 75 76 82 87 85 84 79 80 80 76 66 62 45 47 51 51 45 40 38 35 21 35 40 41
37 40 44 45 46 47 49 50 54 58 60 64 70 70 73 77 79 81 83 79 77 77 87 83 79 75 82 81 66 60 52 48 49 37 36 40 33 32 40 42 39 43 37
39 41 42 44 45 47 49 51 53 58 63 69 73 75 80 80 78 80 74 74 78 74 74 80 88 80 70 70 50 42 47 40 37 33 26 21 20 33 29 40 50 44 35
40 42 43 46 47 47 48 52 51 56 61 61 71 79 77 88 81 71 71 71 75 69 69 66 75 75 66 47 37 43 36 32 32 28 29 20 27 39 41 45 41 36 29
42 44 47 49 50 50 51 56 56 60 64 72 76 77 81 81 77 63 63 67 67 62 51 45 45 29 28 32 27 24 30 31 32 33 28 25 33 45 38 35 33 30 25
45 48 50 51 53 53 49 53 57 58 66 71 79 84 76 68 66 63 57 52 61 47 45 33 22 20 21 22 26 28 33 31 34 36 32 40 39 49 34 36 33 30 26
Wind_Direction_850mb
181 212 213 267 270 317 331 327 321 315 301 289 287 286 285 281 280 280 277 283 282 283 285 297 311 317 318 320 322 323 323 324 324 321 318 313 307 302 296 291 286 283 281
202 218 230 255 300 318 321 313 310 307 304 301 298 294 289 285 280 278 277 282 281 285 289 299 307 312 315 320 321 324 327 328 325 321 317 316 312 308 302 295 290 286 283
216 225 244 263 276 298 312 315 315 312 309 304 296 293 291 287 285 283 280 277 285 285 289 293 295 300 309 317 323 323 322 322 321 319 317 315 315 312 308 301 299 294 290
204 236 257 265 274 291 306 308 309 312 310 307 303 299 295 291 287 284 281 278 280 284 286 283 286 293 303 312 315 318 320 319 318 317 315 313 313 315 314 311 303 298 296
228 260 287 284 286 291 296 298 302 305 309 311 308 304 300 295 291 285 281 279 278 277 275 278 276 284 298 310 314 315 315 314 315 317 314 311 313 314 312 311 310 305 296
247 270 288 287 289 291 292 295 300 305 306 309 308 304 300 296 291 286 282 279 275 271 270 272 276 281 293 302 305 308 312 314 316 316 313 310 310 308 306 308 311 313 310
242 259 279 289 292 293 293 296 298 301 305 308 309 309 302 295 289 284 279 275 272 269 266 267 268 270 285 298 303 306 308 312 311 308 307 305 303 305 309 311 314 309 299
246 265 280 288 294 297 296 296 299 302 301 304 307 315 317 305 298 289 285 278 274 269 266 267 265 265 281 294 298 302 305 306 303 300 300 300 294 301 307 308 319 327 320
252 269 283 289 289 289 290 293 295 295 295 298 297 289 303 286 303 292 284 284 283 276 274 273 270 266 277 289 293 295 298 300 298 296 296 296 295 294 299 307 305 330 340
285 291 295 296 294 285 283 284 287 288 289 290 290 286 279 277 287 293 290 291 276 277 281 279 274 266 272 283 286 287 292 294 292 291 292 292 282 283 286 285 300 332 2
295 289 287 289 289 285 282 279 280 282 283 285 284 282 285 279 275 267 284 282 283 281 274 275 277 268 267 277 283 282 286 288 287 286 287 288 286 276 267 260 265 280 286
283 283 289 290 298 289 287 282 280 282 286 286 286 283 281 273 277 271 268 277 278 278 270 276 275 270 269 270 279 277 280 282 280 279 280 280 278 270 260 260 262 270 287
271 276 288 298 302 301 300 299 297 291 287 285 287 287 282 280 279 272 268 273 275 274 274 277 277 273 270 267 276 272 275 277 275 275 276 276 273 257 244 255 266 276 282
278 288 302 311 313 312 309 305 302 301 298 291 287 285 283 279 278 279 279 281 273 272 268 270 273 273 271 265 265 264 272 271 269 270 271 273 265 250 250 261 260 266 264
299 317 324 325 323 320 317 314 312 308 303 299 295 291 287 285 281 278 277 276 276 269 270 266 265 272 269 263 258 262 267 266 263 265 265 264 258 248 247 248 249 261 262
343 341 337 333 330 327 323 319 315 310 305 301 296 293 290 288 287 285 283 279 274 273 269 267 259 260 266 262 260 265 263 263 265 264 260 260 257 250 248 251 250 254 259
340 335 333 332 330 328 324 321 317 313 309 304 299 294 292 291 287 283 283 282 280 276 273 276 271 260 256 256 260 253 260 268 260 260 255 253 251 247 245 245 248 248 267
340 337 333 330 327 324 321 318 315 312 310 307 306 302 297 295 292 292 292 291 288 284 281 282 276 266 260 259 251 246 256 254 251 249 241 242 248 248 249 246 248 243 252
326 328 329 330 330 329 326 324 321 319 315 313 311 307 304 303 298 290 289 291 290 290 286 285 280 266 257 257 238 240 242 240 245 235 233 240 251 255 257 258 248 230 228
336 335 334 332 331 328 323 318 317 316 315 312 310 307 304 301 297 296 297 288 287 287 287 282 278 256 256 251 240 246 239 230 232 231 233 241 249 255 262 242 226 226 230
332 330 328 327 327 326 323 318 314 314 313 311 310 307 302 297 293 292 288 287 285 281 282 277 271 257 247 244 232 236 234 234 235 234 240 247 248 251 237 254 241 237 246
328 327 327 327 327 325 322 319 317 318 318 318 315 309 302 298 294 289 287 283 286 282 282 268 261 253 246 236 238 236 228 235 214 232 253 261 260 229 235 242 231 216 215
325 324 325 325 326 326 328 323 318 316 317 319 321 321 316 311 307 310 303 291 289 280 280 274 273 250 230 225 229 222 211 224 239 250 254 251 238 222 229 219 215 224 225
324 324 323 324 325 328 328 327 319 316 317 318 319 319 313 311 308 302 301 294 293 283 284 273 271 242 229 234 210 215 222 232 238 237 226 228 220 199 199 190 199 206 198
323 323 324 323 324 327 330 330 326 320 316 314 317 319 317 312 314 313 298 290 291 282 275 240 217 231 215 224 212 211 214 211 212 207 212 220 208 188 184 187 192 192 194
322 321 320 322 324 325 331 328 325 321 318 319 323 320 321 318 317 312 292 281 277 249 246 233 211 215 200 200 209 213 224 220 222 218 236 220 211 199 168 184 193 192 194